Probability
0 0 0 0 0 0 0 0 0 0 0 0 0 1 2 2 4 20 28 13 0 0 0 0 0 0 0 0 0 0 0 0 0 0 0 0 0 0
0 0 0 0 0 0 0 0 0 0 0 0 0 0 1 1 2 11 16 9 1 0 0 0 0 0 0 0 0 0 0 0 0 0 0 0 0 0
0 0 0 0 0 0 0 0 0 0 0 0 0 0 0 0 0 2 4 4 2 1 0 0 0 0 0 0 0 0 0 0 0 0 0 0 0 0
0 0 0 0 0 0 0 0 0 0 0 0 0 0 0 0 0 0 0 1 1 0 0 0 0 0 0 0 0 0 0 0 0 0 0 0 0 0
0 0 0 0 0 0 0 0 0 0 0 0 0 0 0 0 0 0 0 0 0 0 0 0 0 0 0 0 0 0 0 0 0 0 0 0 0 0
0 0 0 0 0 0 0 0 0 0 0 0 0 0 0 0 0 0 0 0 0 0 0 0 0 0 0 0 0 0 0 0 0 0 0 0 0 0
0 0 0 0 0 0 0 0 0 0 0 0 0 0 0 0 0 0 0 0 0 0 0 0 0 0 0 0 0 0 0 0 0 0 0 0 0 0
0 0 0 0 0 0 0 0 0 0 0 0 0 0 0 0 0 0 0 0 0 0 0 0 0 0 0 0 0 0 0 0 0 0 0 0 0 0
0 0 0 0 0 0 0 0 0 0 0 0 0 0 0 0 0 0 0 0 0 0 0 0 0 0 0 0 0 0 0 0 0 0 0 0 0 0
0 0 0 0 0 0 0 0 0 0 0 0 0 0 0 0 0 0 0 0 0 0 0 0 0 0 0 0 0 0 0 0 0 0 0 0 0 0
0 0 0 0 0 0 0 0 0 0 0 0 0 0 0 0 0 0 0 0 0 0 0 0 0 0 0 0 0 0 0 0 0 0 0 0 0 0
0 0 0 0 0 0 0 0 0 0 0 0 0 0 0 0 0 0 0 0 0 0 0 0 0 0 0 0 0 0 0 0 0 0 0 0 0 0
0 0 0 0 0 0 0 0 0 0 0 0 0 0 0 0 0 0 0 0 0 0 0 0 0 0 0 0 0 0 0 0 0 0 0 0 0 0
0 0 0 0 0 0 0 0 0 0 0 0 0 0 0 0 0 0 0 0 0 0 0 0 0 0 0 0 0 0 0 0 0 0 0 0 0 0
0 0 0 0 0 0 0 0 0 0 0 0 0 0 0 0 0 0 0 0 0 0 0 0 0 0 0 0 0 0 0 0 0 0 0 0 0 0
0 0 0 0 0 0 0 0 0 0 0 0 0 0 0 0 0 0 0 0 0 0 0 0 0 0 0 0 0 0 0 0 0 0 0 0 0 0
0 0 0 0 0 0 0 0 0 0 0 0 0 0 0 0 0 0 0 0 0 0 0 0 0 0 0 0 0 0 0 0 0 0 0 0 0 0
0 0 0 0 0 0 0 0 0 0 0 0 0 0 0 0 0 0 0 0 0 0 0 0 0 0 0 0 0 0 0 0 0 0 0 0 0 0
0 0 0 0 0 0 0 0 0 0 0 0 0 0 0 0 0 0 0 0 0 0 0 0 0 0 0 0 0 0 0 0 0 0 0 0 0 0
0 0 0 0 0 0 0 0 0 0 0 0 0 0 0 0 0 0 0 0 0 0 0 0 0 0 0 0 0 0 0 0 0 0 0 0 0 0
0 0 0 0 0 0 0 0 0 0 0 0 0 0 0 0 0 0 0 0 0 0 0 0 0 0 0 0 0 0 0 0 0 0 0 0 0 0
0 0 0 0 0 0 0 0 0 0 0 0 0 0 0 0 0 0 0 0 0 0 0 0 0 0 0 0 0 0 0 0 0 0 0 0 0 0
0 0 0 0 0 0 0 0 0 0 0 0 0 0 0 0 0 0 0 0 0 0 0 0 0 0 0 0 0 0 0 0 0 0 0 0 0 0
Wind_Speed
1 2 3 3 3 3 3 3 5 6 4 2 3 3 4 4 4 6 4 6 6 7 8 9 10 12 13 14 16 17 17 17 19 23 28 30 29 29
2 3 3 3 3 3 4 3 4 6 6 4 4 6 7 6 4 6 5 4 7 7 7 8 9 11 12 11 12 15 16 17 20 25 27 27 26 26
3 4 4 5 5 5 5 4 4 5 7 6 4 4 6 7 4 3 3 4 4 7 6 7 9 9 8 8 8 11 14 17 23 27 27 26 25 23
5 5 5 5 5 6 6 5 4 4 6 8 7 6 6 7 7 5 4 5 4 6 7 7 7 6 5 5 6 9 13 17 22 25 25 25 24 21
6 6 5 5 6 5 6 7 6 5 4 5 6 5 6 8 9 6 5 4 4 5 7 6 5 4 3 3 4 8 13 17 20 21 22 22 21 20
7 6 6 6 7 7 5 6 7 6 5 5 5 6 7 9 9 9 7 4 2 4 3 2 2 3 3 3 5 9 12 15 17 19 19 19 18 17
8 8 9 8 7 7 7 8 9 7 6 6 7 7 8 9 9 8 9 7 1 1 2 1 1 2 3 5 6 9 11 13 15 17 18 17 15 15
8 8 8 7 5 5 6 7 10 10 10 9 9 9 9 9 8 7 7 7 4 3 1 2 2 2 1 1 6 10 10 12 13 14 16 16 14 13
8 7 8 9 8 7 4 3 5 5 5 8 10 10 11 11 9 9 7 5 5 5 3 4 4 3 3 3 6 8 9 11 13 14 14 13 13 13
7 7 8 9 10 10 7 8 7 7 7 8 8 8 9 10 10 7 4 1 3 3 3 3 4 4 3 3 3 4 7 8 9 11 12 12 13 13
6 7 6 8 11 14 7 7 7 6 2 1 3 5 5 5 9 9 9 7 4 5 3 2 1 2 3 3 3 2 3 6 9 10 11 12 12 12
5 7 10 9 11 14 9 8 8 8 8 5 2 4 5 6 8 10 10 9 7 5 5 3 1 1 2 1 1 0 0 0 4 8 11 13 12 9
3 4 7 8 9 11 9 7 7 9 7 6 5 6 7 7 9 9 9 8 8 7 7 5 2 1 1 2 1 1 2 2 2 3 6 9 12 11
2 4 7 5 5 6 6 8 11 10 5 6 6 7 7 8 8 8 8 6 6 7 9 9 4 3 2 1 2 3 3 4 4 4 4 4 5 8
4 6 4 1 5 4 1 6 7 6 6 6 6 6 6 7 7 6 7 4 2 6 9 10 8 5 4 3 3 2 1 3 4 4 5 5 4 4
5 6 5 3 2 2 2 0 5 7 7 7 7 6 6 6 7 8 8 7 6 6 8 10 9 8 5 5 4 5 5 2 2 4 4 3 3 3
1 5 5 4 3 3 4 4 5 6 6 7 7 7 7 7 7 7 7 7 7 7 8 8 8 6 8 8 6 6 6 5 3 1 2 3 3 3
5 4 3 2 2 3 4 4 6 7 7 6 7 7 7 7 7 7 7 8 7 7 7 8 8 7 3 5 9 10 7 7 6 3 1 1 2 3
5 4 3 2 2 2 3 4 5 5 5 6 6 6 6 6 6 7 7 8 8 7 7 7 8 9 8 6 4 7 9 8 8 6 4 3 2 1
4 4 3 3 2 1 3 4 4 4 4 5 6 6 6 6 6 7 6 8 8 7 7 7 8 9 9 9 7 4 2 6 7 7 6 5 4 1
5 4 4 3 2 1 1 1 2 3 4 4 5 5 5 5 6 6 6 5 6 6 7 7 6 7 8 7 7 4 2 2 2 4 6 5 5 4
5 5 4 3 3 2 2 2 1 0 2 3 4 4 4 5 5 6 6 6 6 7 8 7 7 7 6 7 8 8 7 4 1 3 3 3 4 4
6 5 5 5 5 4 4 4 3 2 1 2 3 4 5 5 5 6 6 6 6 7 8 7 7 7 7 7 7 7 8 8 6 4 4 4 6 8
Wind_Direction
303 313 313 327 319 323 310 317 319 318 325 357 341 346 327 329 331 297 259 171 208 228 241 249 255 259 258 252 240 230 222 212 200 190 182 180 181 181
34 10 353 339 330 324 321 313 304 302 305 319 320 331 330 313 307 309 302 184 223 233 244 252 258 263 267 265 242 221 209 198 184 175 174 175 176 183
55 42 35 23 9 356 352 338 319 305 293 297 304 327 329 323 309 282 258 240 222 220 239 254 261 268 279 275 242 209 192 182 174 170 171 171 174 184
64 57 48 49 34 14 348 345 334 318 307 314 321 328 329 329 319 291 256 242 228 202 218 242 256 269 276 264 221 190 176 170 167 166 166 169 177 183
70 70 60 43 25 18 354 353 344 354 354 332 339 346 343 346 334 317 276 251 234 182 202 224 240 253 242 214 172 164 161 159 158 159 163 168 175 176
77 73 59 40 21 358 5 11 8 14 36 27 18 10 6 360 359 347 333 299 235 174 176 206 202 218 201 163 146 144 144 146 149 153 158 164 168 171
83 71 61 49 29 2 7 12 13 12 29 33 31 24 17 8 7 352 343 332 305 146 164 188 237 235 183 168 155 146 145 147 151 155 158 162 167 174
86 89 93 68 79 64 36 25 16 16 16 12 29 21 16 6 358 360 359 0 1 3 25 38 351 320 303 187 141 146 151 154 158 162 166 169 175 183
73 63 63 57 29 51 94 156 76 44 355 336 23 9 11 6 346 359 21 25 26 357 19 32 4 343 352 50 123 151 157 158 161 167 174 180 187 194
82 76 68 54 26 358 33 43 44 42 20 16 10 3 12 353 340 334 341 116 110 65 46 41 8 357 1 41 66 151 164 168 173 179 188 194 197 200
82 57 48 56 16 347 11 27 25 22 126 185 296 294 285 319 345 354 359 355 38 72 66 73 38 13 12 25 29 42 168 185 191 196 201 205 204 204
127 115 72 40 16 358 5 19 14 359 344 346 326 332 354 17 19 14 7 3 9 39 34 9 63 107 80 35 15 289 34 131 194 202 205 207 202 208
128 111 78 39 21 4 356 19 349 310 322 347 3 9 12 14 17 24 19 14 12 20 9 349 349 18 108 129 147 212 205 181 179 176 189 197 199 205
89 73 78 46 30 15 16 350 317 313 360 11 14 15 16 13 15 19 27 37 36 27 9 360 350 343 338 80 150 178 195 192 186 174 165 169 192 208
75 63 52 281 230 165 81 311 326 8 13 13 14 11 11 13 358 2 8 358 4 37 22 10 5 351 339 347 3 16 183 173 181 166 161 171 176 184
158 152 187 228 203 124 185 335 47 32 1 5 2 359 354 356 359 359 353 352 355 18 29 12 8 5 359 347 355 10 10 15 149 160 158 160 163 174
232 194 189 169 147 94 73 47 26 21 11 8 1 354 352 351 352 357 351 345 355 1 8 10 7 21 46 20 16 15 13 16 22 92 149 159 164 166
263 184 153 125 75 52 33 41 44 28 11 11 9 0 353 352 356 1 2 357 354 357 0 1 358 354 349 67 28 11 10 8 4 356 322 204 177 169
227 155 140 119 90 70 47 39 42 46 10 10 12 4 355 355 360 356 3 356 349 352 353 360 0 353 341 344 41 32 2 354 351 353 352 333 312 334
200 152 152 145 118 56 47 40 37 38 22 17 21 9 3 2 3 354 13 9 347 353 354 12 13 352 333 328 323 334 17 348 349 346 341 331 317 285
168 167 173 170 160 151 82 39 29 38 22 358 27 10 2 3 7 356 1 8 330 353 352 5 13 310 296 304 305 325 20 115 13 341 337 323 313 300
171 178 181 187 195 210 198 235 241 102 348 353 20 360 1 357 358 350 350 345 349 355 345 347 352 338 340 343 336 338 350 355 181 201 262 295 325 329
187 190 185 194 209 221 231 221 235 268 291 340 351 350 351 347 340 341 340 338 345 348 338 342 348 346 351 346 339 339 348 356 348 305 261 224 246 261